Location: Unspecified
(35.6961°N, 0.0000°E)
Time: 02:35:54
(UTC+00:00)

Altair - Pass Details

Date: 19 May 2019
Orbit: 1501 x 1683 km, 47.2° (Epoch: 16 June)

Event Time Altitude Azimuth Distance (km) Brightness Sun altitude
Rises 09:06:52 0° 296° (WNW) 4,930 9.8 49.6°
Reaches altitude 10° 09:10:16 10° 302° (WNW) 3,930 9.4 50.3°
Maximum altitude 09:19:57 49° 15° (NNE) 2,040 8.8 52.2°
Drops below altitude 10° 09:29:18 10° 88° (E) 3,806 10.3 54.0°
Sets 09:32:32 0° 94° (E) 4,764 10.6 54.6°
